Weather in Tarumovka

Russia / Republic of Dagestan     44°04′22″N   46°32′09″E
temp.,
°C
wind,
m/s
gust,
m/s
humid.,
%
clouds,
%
prec.,
mm/h
press.,
hPa
HPBL,
m
9 march, tue
tue900:00+1e3493100 1.1 1018248
03:000ese339689 1.1 101887
06:000ssw339660 0.0 1018246
09:00+3ssw227777 0.0 1018332
12:00+7wsw234328 0.0 10171269
15:00+9wsw233614 0.0 10161452
18:00+7ssw33452 0.0 101737
21:00+5nw466117 0.0 1019333
10 march, wed
wed1000:00+4wnw375899 0.0 1019316
03:00+3w487599 0.0 1021452
06:00+2w4879100 0.1 1022339
09:00+4wnw685395 0.0 1023910
12:00+6nw684084 0.0 10231575
15:00+6nnw573977 0.0 10231589
18:00+4n3545100 0.0 1023327
21:00+2e4659100 0.0 1024487
11 march, thu
thu1100:00+1ene5764100 0.0 1022639
03:000ene6862100 0.0 1022705
06:00−2ene71093100 1.0 1022573
09:00−1ene81192100 2.5 1022778
12:00−1ene91291100 1.4 1021896
15:00−3ene91290100 2.6 1021880
18:00−4ene81194100 1.5 1021779
21:00−5ne81294100 3.0 1022705
12 march, fri
fri1200:00−5ene81294100 0.8 1022750
03:00−5ne81394100 2.3 1022804
06:00−6ene71194100 1.4 1025741
09:00−5ene71093100 2.9 1027710
12:00−4ne7991100 0.6 1027734
15:00−5ne6991100 0.9 1028676
18:00−7ene4892100 0.3 1030601
21:00−7ene2694100 0.6 1032346
13 march, sat
sat1300:00−7ne2286100 0.0 103229
03:00−9nne238287 0.0 103222
06:00−10ene238186 0.0 103321
09:00−5ene347476 0.0 1034430
12:00−3e337234 0.0 1033896
15:00−2e447568 0.0 1032888
18:00−6e458463 0.0 103178
21:00−7e468478 0.0 1031104